Weather History for Greenville Downtown, SC

Change the Weather History Date:

Monday, March 4, 2013

  Actual Average Record
Temperature  
Mean Temperature 40 °F -  
Max Temperature 55 °F 57 °F 77 °F (2004)
Min Temperature 25 °F 38 °F 25 °F (2002)
Degree Days  
Heating Degree Days 25    
Moisture  
Dew Point 14 °F    
Average Humidity 36    
Maximum Humidity 63    
Minimum Humidity 18    
Precipitation  
Precipitation 0.00 in - - ()
Sea Level Pressure  
Sea Level Pressure 30.10 in    
Wind  
Wind Speed 5 mph (NW)    
Max Wind Speed 14 mph    
Max Gust Speed 18 mph    
Visibility 10 miles    
Events      
Averages and records for this station are not official NWS values.
T = Trace of Precipitation, MM = Missing Value Source: NWS Daily Summary

Daily Weather History Graph

Daily Weather History Graph

Search for Another Location

Airport:

Trip Planner

Search our weather history database for the weather conditions in past years. The results will help you decide how hot, cold, wet, or windy it might be!

Date:

Astronomy

Mar. 04, 2013 Rise Set
Actual Time 6:54 AM EST 6:28 PM EST
Civil Twilight 6:29 AM EST 6:53 PM EST
Nautical Twilight 5:59 AM EST 7:22 PM EST
Astronomical Twilight 5:30 AM EST 7:51 PM EST
Moon 12:53 AM EST (3/4) 11:18 AM EST (3/4)
Length of Visible Light 12h 24m
Length of Day
11h 33m
Waning Gibbous, 52% of the Moon is Illuminated
Mar 4
Waning Gibbous
Mar 4
Last Quarter
Mar 11
New
Mar 19
First Quarter
Mar 27
Full

Hourly Weather History & Observations

Time (EST) Temp. Windchill Dew Point Humidity Pressure Visibility Wind Dir Wind Speed Gust Speed Precip Events Conditions
12:53 AM 30.0 °F 24.1 °F 14.0 °F 51% 30.05 in 10.0 mi North 5.8 mph - N/A   Clear
1:53 AM 30.0 °F 24.1 °F 12.9 °F 49% 30.06 in 10.0 mi North 5.8 mph - N/A   Clear
2:53 AM 28.9 °F 22.8 °F 12.9 °F 51% 30.07 in 10.0 mi North 5.8 mph - N/A   Clear
3:53 AM 28.0 °F 22.8 °F 12.9 °F 53% 30.08 in 10.0 mi North 4.6 mph - N/A   Clear
4:53 AM 28.9 °F - 12.0 °F 49% 30.10 in 10.0 mi Calm Calm - N/A   Clear
5:53 AM 28.9 °F - 12.9 °F 51% 30.12 in 10.0 mi Calm Calm - N/A   Clear
6:53 AM 25.0 °F - 14.0 °F 63% 30.14 in 10.0 mi Calm Calm - N/A   Clear
7:53 AM 32.0 °F 25.6 °F 15.1 °F 50% 30.14 in 10.0 mi NNE 6.9 mph - N/A   Clear
8:53 AM 36.0 °F 31.1 °F 14.0 °F 41% 30.18 in 10.0 mi NNW 5.8 mph - N/A   Clear
9:53 AM 39.9 °F 35.8 °F 12.9 °F 33% 30.18 in 10.0 mi NNE 5.8 mph - N/A   Clear
10:53 AM 43.0 °F 40.3 °F 12.9 °F 30% 30.18 in 10.0 mi Variable 4.6 mph - N/A   Clear
11:53 AM 45.0 °F 41.8 °F 12.0 °F 26% 30.15 in 10.0 mi SSW 5.8 mph - N/A   Clear
12:53 PM 50.0 °F - 12.0 °F 22% 30.13 in 10.0 mi WNW 9.2 mph - N/A   Clear
1:53 PM 52.0 °F - 9.0 °F 18% 30.09 in 10.0 mi WSW 5.8 mph - N/A   Clear
2:53 PM 54.0 °F - 10.9 °F 18% 30.07 in 10.0 mi Variable 5.8 mph - N/A   Clear
3:53 PM 55.9 °F - 14.0 °F 19% 30.06 in 10.0 mi SSW 13.8 mph 18.4 mph N/A   Clear
4:53 PM 53.1 °F - 12.0 °F 20% 30.07 in 10.0 mi SW 6.9 mph - N/A   Clear
5:53 PM 53.1 °F - 14.0 °F 21% 30.06 in 10.0 mi SSW 6.9 mph - N/A   Clear
6:53 PM 51.1 °F - 18.0 °F 27% 30.08 in 10.0 mi Calm Calm - N/A   Clear
7:53 PM 50.0 °F - 19.0 °F 29% 30.08 in 10.0 mi Calm Calm - N/A   Clear
8:53 PM 48.9 °F - 19.0 °F 31% 30.07 in 10.0 mi Calm Calm - N/A   Clear
9:53 PM 48.9 °F - 17.1 °F 28% 30.08 in 10.0 mi Calm Calm - N/A   Clear
10:53 PM 48.0 °F - 19.9 °F 33% 30.07 in 10.0 mi Calm Calm - N/A   Clear
11:53 PM 46.0 °F - 23.0 °F 40% 30.06 in 10.0 mi Calm Calm - N/A   Clear